DAH1039 LFLL-DABT

Flight info

Callsign DAH1039
Flight time 1h 43m
Altitude 37000
Route MTL DCT SAURG DCT MRM DCT PADKO DCT TINOT DCT RASPA DCT OLNUL DCT SUXER DCT KAMER DCT CSO
Aircraft B738/M-SDE2E3FGHIRWXY/LB1

Departure

Time 2026-05-06 11:52
Airport Lyon Saint-Exupéry Airport (LFLL)

Arrival

Time 2026-05-06 13:35
Airport Batna Mostefa Ben Boulaid Airport (DABT)
Time Latitude Longitude Altitude Speed Heading
2026-05-06 11:23 45.71842 5.08296 799 ft 0 kts 105°
2026-05-06 11:41 45.71846 5.08274 799 ft 4 kts 105°
2026-05-06 11:41 45.71853 5.08238 798 ft 2 kts 105°
2026-05-06 11:41 45.71862 5.08208 797 ft 4 kts 141°
2026-05-06 11:41 45.71884 5.08200 796 ft 4 kts 192°
2026-05-06 11:42 45.71897 5.08205 796 ft 1 kts 195°
2026-05-06 11:42 45.71898 5.08205 796 ft 0 kts 195°
2026-05-06 11:45 45.71884 5.08200 796 ft 7 kts 194°
2026-05-06 11:45 45.71812 5.08173 796 ft 12 kts 197°
2026-05-06 11:45 45.71742 5.08121 797 ft 11 kts 188°
2026-05-06 11:45 45.71688 5.08187 799 ft 11 kts 105°
2026-05-06 11:46 45.71674 5.08291 800 ft 11 kts 85°
2026-05-06 11:46 45.71682 5.08397 799 ft 11 kts 85°
2026-05-06 11:46 45.71669 5.08494 801 ft 10 kts 130°
2026-05-06 11:46 45.71605 5.08513 802 ft 10 kts 186°
2026-05-06 11:47 45.71538 5.08512 802 ft 10 kts 174°
2026-05-06 11:47 45.71473 5.08521 805 ft 9 kts 175°
2026-05-06 11:47 45.71409 5.08528 809 ft 10 kts 175°
2026-05-06 11:47 45.71324 5.08540 812 ft 14 kts 174°
2026-05-06 11:48 45.71231 5.08552 813 ft 13 kts 175°
2026-05-06 11:48 45.71145 5.08583 814 ft 13 kts 141°
2026-05-06 11:48 45.71112 5.08672 815 ft 9 kts 110°
2026-05-06 11:48 45.71102 5.08711 817 ft 2 kts 104°
2026-05-06 11:49 45.71100 5.08726 817 ft 2 kts 102°
2026-05-06 11:49 45.71098 5.08741 819 ft 2 kts 102°
2026-05-06 11:49 45.71091 5.08788 817 ft 6 kts 102°
2026-05-06 11:49 45.71081 5.08849 819 ft 6 kts 103°
2026-05-06 11:50 45.71076 5.08909 820 ft 6 kts 89°
2026-05-06 11:50 45.71085 5.08967 820 ft 7 kts 69°
2026-05-06 11:50 45.71142 5.09021 819 ft 11 kts
2026-05-06 11:50 45.71168 5.09021 818 ft 0 kts 356°
2026-05-06 11:51 45.71204 5.09017 818 ft 14 kts 356°
2026-05-06 11:51 45.71520 5.08979 813 ft 83 kts 355°
2026-05-06 11:51 45.72330 5.08879 799 ft 148 kts 355°
2026-05-06 11:51 45.73493 5.08743 1097 ft 179 kts 356°
2026-05-06 11:52 45.74747 5.08650 1956 ft 184 kts 359°
2026-05-06 11:52 45.76001 5.08541 2989 ft 177 kts 354°
2026-05-06 11:52 45.77271 5.08423 3875 ft 181 kts 356°
2026-05-06 11:52 45.78563 5.08338 4702 ft 189 kts 355°
2026-05-06 11:53 45.79906 5.08255 5452 ft 198 kts 354°
2026-05-06 11:53 45.81279 5.08159 6107 ft 207 kts 355°
2026-05-06 11:53 45.82773 5.08183 6586 ft 219 kts
2026-05-06 11:53 45.84160 5.09181 7107 ft 236 kts 42°
2026-05-06 11:54 45.84978 5.11327 7394 ft 261 kts 84°
2026-05-06 11:54 45.84690 5.13847 8118 ft 264 kts 117°
2026-05-06 11:54 45.83621 5.15973 8870 ft 267 kts 141°
2026-05-06 11:54 45.82014 5.17219 9725 ft 260 kts 172°
2026-05-06 11:55 45.80239 5.17510 10609 ft 258 kts 176°
2026-05-06 11:55 45.78448 5.17901 11385 ft 261 kts 172°
2026-05-06 11:55 45.76668 5.18446 12176 ft 264 kts 169°
2026-05-06 11:55 45.74865 5.19082 12976 ft 267 kts 168°
2026-05-06 11:56 45.73084 5.19744 13768 ft 269 kts 168°
2026-05-06 11:56 45.71223 5.20311 14423 ft 273 kts 178°
2026-05-06 11:56 45.69281 5.20292 14680 ft 294 kts 184°
2026-05-06 11:56 45.67161 5.20131 14851 ft 317 kts 185°
2026-05-06 11:57 45.64881 5.19937 15014 ft 340 kts 185°
2026-05-06 11:57 45.62464 5.19739 15282 ft 356 kts 184°
2026-05-06 11:57 45.59962 5.19550 15857 ft 363 kts 184°
2026-05-06 11:57 45.57442 5.19372 16609 ft 364 kts 184°
2026-05-06 11:58 45.54895 5.19199 17326 ft 367 kts 183°
2026-05-06 11:58 45.52357 5.19032 18005 ft 370 kts 183°
2026-05-06 11:58 45.49775 5.18865 18615 ft 374 kts 183°
2026-05-06 11:58 45.47165 5.18697 19179 ft 378 kts 183°
2026-05-06 11:59 45.44521 5.18528 19742 ft 381 kts 183°
2026-05-06 11:59 45.41862 5.18358 20319 ft 385 kts 182°
2026-05-06 11:59 45.39181 5.18187 20876 ft 388 kts 182°
2026-05-06 11:59 45.36471 5.18013 21444 ft 391 kts 183°
2026-05-06 12:00 45.33747 5.17839 22010 ft 393 kts 183°
2026-05-06 12:00 45.31009 5.17664 22564 ft 396 kts 183°
2026-05-06 12:00 45.28242 5.17488 23107 ft 399 kts 183°
2026-05-06 12:00 45.25496 5.17313 23593 ft 402 kts 183°
2026-05-06 12:01 45.22694 5.17134 24043 ft 404 kts 184°
2026-05-06 12:01 45.19890 5.16956 24553 ft 404 kts 184°
2026-05-06 12:01 45.17081 5.16777 25051 ft 404 kts 184°
2026-05-06 12:01 45.14267 5.16598 25529 ft 405 kts 185°
2026-05-06 12:02 45.11456 5.16377 25979 ft 405 kts 189°
2026-05-06 12:02 45.08742 5.15388 26399 ft 403 kts 204°
2026-05-06 12:02 45.06248 5.13700 26860 ft 402 kts 208°
2026-05-06 12:02 45.03763 5.11910 27290 ft 402 kts 208°
2026-05-06 12:03 45.01271 5.10097 27692 ft 404 kts 208°
2026-05-06 12:03 44.98762 5.08282 28092 ft 405 kts 208°
2026-05-06 12:03 44.96249 5.06482 28511 ft 405 kts 208°
2026-05-06 12:03 44.93728 5.04693 28873 ft 407 kts 208°
2026-05-06 12:04 44.91191 5.02902 29256 ft 408 kts 208°
2026-05-06 12:04 44.88655 5.01120 29629 ft 409 kts 209°
2026-05-06 12:04 44.86106 4.99332 30034 ft 408 kts 209°
2026-05-06 12:04 44.83565 4.97553 30425 ft 407 kts 209°
2026-05-06 12:05 44.81064 4.95803 30726 ft 407 kts 209°
2026-05-06 12:05 44.78518 4.94023 30977 ft 409 kts 209°
2026-05-06 12:05 44.75972 4.92244 31293 ft 409 kts 209°
2026-05-06 12:05 44.73425 4.90466 31636 ft 408 kts 209°
2026-05-06 12:06 44.70877 4.88690 31947 ft 408 kts 209°
2026-05-06 12:06 44.68330 4.86914 32228 ft 409 kts 209°
2026-05-06 12:06 44.65786 4.85142 32536 ft 409 kts 209°
2026-05-06 12:06 44.63226 4.83363 32850 ft 410 kts 209°
2026-05-06 12:07 44.60708 4.81613 33122 ft 410 kts 209°
2026-05-06 12:07 44.58058 4.80092 33375 ft 415 kts 198°
2026-05-06 12:07 44.55185 4.79501 33667 ft 421 kts 187°
2026-05-06 12:07 44.52238 4.79655 33937 ft 428 kts 176°
2026-05-06 12:08 44.49327 4.80707 34143 ft 436 kts 167°
2026-05-06 12:08 44.46441 4.82080 34369 ft 438 kts 166°
2026-05-06 12:08 44.43568 4.83500 34591 ft 438 kts 166°
2026-05-06 12:08 44.40705 4.84915 34829 ft 438 kts 166°
2026-05-06 12:09 44.37826 4.86320 35074 ft 437 kts 166°
2026-05-06 12:09 44.34989 4.87684 35293 ft 437 kts 167°
2026-05-06 12:09 44.32110 4.89051 35512 ft 437 kts 167°
2026-05-06 12:09 44.29229 4.90409 35737 ft 437 kts 167°
2026-05-06 12:10 44.26350 4.91761 35955 ft 437 kts 167°
2026-05-06 12:10 44.23468 4.93111 36167 ft 437 kts 167°
2026-05-06 12:10 44.20586 4.94461 36391 ft 437 kts 167°
2026-05-06 12:10 44.17699 4.95812 36609 ft 437 kts 167°
2026-05-06 12:11 44.14828 4.97154 36833 ft 436 kts 167°
2026-05-06 12:11 44.11940 4.98503 36902 ft 439 kts 167°
2026-05-06 12:11 44.06179 5.01190 36902 ft 437 kts 167°
2026-05-06 12:12 44.00442 5.03865 36908 ft 433 kts 167°
2026-05-06 12:12 43.94755 5.06507 36911 ft 430 kts 167°
2026-05-06 12:13 43.89097 5.09130 36901 ft 428 kts 167°
2026-05-06 12:13 43.83451 5.11734 36914 ft 427 kts 167°
2026-05-06 12:14 43.77810 5.14321 36920 ft 428 kts 167°
2026-05-06 12:14 43.72191 5.16893 36910 ft 430 kts 167°
2026-05-06 12:15 43.66501 5.19496 36913 ft 432 kts 167°
2026-05-06 12:15 43.60774 5.22112 36908 ft 433 kts 167°
2026-05-06 12:16 43.55041 5.24725 36917 ft 435 kts 168°
2026-05-06 12:16 43.49320 5.27328 36937 ft 436 kts 168°
2026-05-06 12:17 43.43552 5.29948 36941 ft 437 kts 168°
2026-05-06 12:17 43.37748 5.32364 36928 ft 432 kts 175°
2026-05-06 12:18 43.31843 5.32961 36940 ft 423 kts 184°
2026-05-06 12:18 43.25967 5.33161 36930 ft 422 kts 184°
2026-05-06 12:19 43.20144 5.33297 36935 ft 419 kts 186°
2026-05-06 12:19 43.14329 5.33076 36936 ft 417 kts 187°
2026-05-06 12:20 43.08537 5.32824 36940 ft 416 kts 187°
2026-05-06 12:20 43.02755 5.32609 36943 ft 415 kts 187°
2026-05-06 12:21 42.97025 5.32413 36946 ft 414 kts 187°
2026-05-06 12:21 42.91270 5.32220 36947 ft 414 kts 187°
2026-05-06 12:22 42.85512 5.32027 36946 ft 413 kts 187°
2026-05-06 12:22 42.79766 5.31834 36960 ft 413 kts 187°
2026-05-06 12:23 42.74019 5.31641 36950 ft 413 kts 187°
2026-05-06 12:23 42.68294 5.31649 36947 ft 418 kts 180°
2026-05-06 12:24 42.62494 5.32543 36956 ft 420 kts 180°
2026-05-06 12:24 42.56701 5.33460 36951 ft 419 kts 180°
2026-05-06 12:25 42.50935 5.34344 36959 ft 419 kts 180°
2026-05-06 12:25 42.45138 5.35217 36952 ft 419 kts 180°
2026-05-06 12:26 42.39345 5.36085 36954 ft 419 kts 180°
2026-05-06 12:26 42.33555 5.36951 36959 ft 419 kts 180°
2026-05-06 12:27 42.27756 5.37818 36957 ft 419 kts 180°
2026-05-06 12:27 42.22011 5.38675 36958 ft 418 kts 180°
2026-05-06 12:28 42.16222 5.39528 36959 ft 417 kts 182°
2026-05-06 12:28 42.10486 5.39550 36957 ft 412 kts 187°
2026-05-06 12:29 42.04753 5.39375 36955 ft 411 kts 187°
2026-05-06 12:29 41.99070 5.39225 36963 ft 411 kts 187°
2026-05-06 12:30 41.93340 5.39093 36964 ft 411 kts 187°
2026-05-06 12:30 41.87606 5.38965 36964 ft 412 kts 187°
2026-05-06 12:31 41.81909 5.38837 36961 ft 412 kts 187°
2026-05-06 12:31 41.76165 5.38709 36968 ft 412 kts 187°
2026-05-06 12:32 41.70430 5.38581 36965 ft 412 kts 187°
2026-05-06 12:32 41.64708 5.39058 36954 ft 423 kts 174°
2026-05-06 12:33 41.58966 5.40892 36955 ft 425 kts 173°
2026-05-06 12:33 41.53219 5.42761 36961 ft 425 kts 173°
2026-05-06 12:34 41.47510 5.44586 36960 ft 424 kts 174°
2026-05-06 12:34 41.41765 5.46400 36965 ft 425 kts 174°
2026-05-06 12:35 41.36009 5.48207 36966 ft 425 kts 174°
2026-05-06 12:35 41.30252 5.50011 36963 ft 425 kts 174°
2026-05-06 12:36 41.24534 5.51800 36964 ft 425 kts 174°
2026-05-06 12:36 41.18775 5.53599 36960 ft 425 kts 174°
2026-05-06 12:37 41.13010 5.55397 36960 ft 425 kts 174°
2026-05-06 12:37 41.07249 5.57190 36964 ft 426 kts 174°
2026-05-06 12:38 41.01512 5.58972 36963 ft 426 kts 174°
2026-05-06 12:38 40.95733 5.60765 36970 ft 427 kts 174°
2026-05-06 12:39 40.89952 5.62554 36967 ft 427 kts 174°
2026-05-06 12:39 40.84157 5.64345 36965 ft 428 kts 174°
2026-05-06 12:40 40.78396 5.66122 36956 ft 428 kts 174°
2026-05-06 12:40 40.72589 5.67911 36961 ft 429 kts 173°
2026-05-06 12:41 40.66772 5.69699 36969 ft 429 kts 173°
2026-05-06 12:41 40.60964 5.71481 36960 ft 429 kts 173°
2026-05-06 12:42 40.55179 5.73253 36963 ft 429 kts 173°
2026-05-06 12:42 40.49356 5.75034 36960 ft 429 kts 173°
2026-05-06 12:43 40.43533 5.76811 36962 ft 430 kts 173°
2026-05-06 12:43 40.37749 5.78573 36959 ft 430 kts 173°
2026-05-06 12:44 40.31933 5.80343 36961 ft 430 kts 173°
2026-05-06 12:44 40.26105 5.82112 36962 ft 430 kts 173°
2026-05-06 12:45 40.20284 5.83877 36960 ft 430 kts 173°
2026-05-06 12:46 40.11583 5.86404 36954 ft 427 kts 176°
2026-05-06 12:46 40.05723 5.87618 36952 ft 426 kts 178°
2026-05-06 12:47 39.99872 5.88746 36954 ft 426 kts 178°
2026-05-06 12:47 39.94043 5.89900 36953 ft 426 kts 177°
2026-05-06 12:48 39.88177 5.91086 36957 ft 427 kts 177°
2026-05-06 12:48 39.82313 5.92278 36952 ft 427 kts 177°
2026-05-06 12:49 39.76439 5.93472 36949 ft 427 kts 177°
2026-05-06 12:49 39.70565 5.94662 36952 ft 427 kts 177°
2026-05-06 12:50 39.64725 5.95843 36945 ft 428 kts 177°
2026-05-06 12:50 39.58840 5.97031 36946 ft 428 kts 177°
2026-05-06 12:51 39.52952 5.98217 36950 ft 428 kts 177°
2026-05-06 12:51 39.47055 5.99404 36945 ft 429 kts 177°
2026-05-06 12:52 39.41203 6.00579 36943 ft 429 kts 177°
2026-05-06 12:52 39.35305 6.01762 36949 ft 429 kts 177°
2026-05-06 12:53 39.29390 6.02945 36947 ft 429 kts 177°
2026-05-06 12:53 39.23520 6.04118 36944 ft 430 kts 177°
2026-05-06 12:54 39.17601 6.05299 36943 ft 430 kts 177°
2026-05-06 12:54 39.11682 6.06478 36947 ft 430 kts 177°
2026-05-06 12:55 39.05799 6.07648 36944 ft 431 kts 177°
2026-05-06 12:55 38.99876 6.08824 36948 ft 431 kts 177°
2026-05-06 12:56 38.93952 6.10001 36949 ft 431 kts 177°
2026-05-06 12:56 38.88017 6.11181 36948 ft 431 kts 177°
2026-05-06 12:57 38.82083 6.12360 36950 ft 432 kts 177°
2026-05-06 12:57 38.76186 6.13529 36943 ft 432 kts 177°
2026-05-06 12:58 38.70235 6.14707 36941 ft 432 kts 177°
2026-05-06 12:58 38.64298 6.15880 36944 ft 432 kts 177°
2026-05-06 12:59 38.58392 6.17044 36940 ft 432 kts 177°
2026-05-06 12:59 38.52443 6.18216 36941 ft 432 kts 177°
2026-05-06 13:00 38.46500 6.19384 36939 ft 432 kts 177°
2026-05-06 13:00 38.41559 6.20353 36939 ft 432 kts 177°
2026-05-06 13:01 38.34652 6.21706 36944 ft 432 kts 177°
2026-05-06 13:01 38.29705 6.22674 36943 ft 432 kts 178°
2026-05-06 13:02 38.22763 6.24030 36939 ft 433 kts 178°
2026-05-06 13:02 38.16808 6.25191 36943 ft 433 kts 178°
2026-05-06 13:03 38.10889 6.26342 36944 ft 433 kts 178°
2026-05-06 13:03 38.05926 6.27307 36942 ft 433 kts 178°
2026-05-06 13:04 37.98998 6.28650 36943 ft 433 kts 178°
2026-05-06 13:04 37.93033 6.29806 36941 ft 434 kts 178°
2026-05-06 13:05 37.88058 6.30767 36941 ft 435 kts 178°
2026-05-06 13:05 37.82082 6.31921 36940 ft 435 kts 178°
2026-05-06 13:06 37.75106 6.33265 36938 ft 437 kts 178°
2026-05-06 13:06 37.70108 6.34227 36936 ft 437 kts 179°
2026-05-06 13:07 37.64090 6.35383 36935 ft 438 kts 179°
2026-05-06 13:07 37.58067 6.36538 36935 ft 439 kts 179°
2026-05-06 13:07 37.55037 6.37118 36832 ft 441 kts 179°
2026-05-06 13:08 37.51990 6.37698 36335 ft 445 kts 179°
2026-05-06 13:08 37.48923 6.38285 35704 ft 443 kts 178°
2026-05-06 13:08 37.45880 6.38868 35065 ft 443 kts 178°
2026-05-06 13:08 37.42886 6.39441 34428 ft 443 kts 178°
2026-05-06 13:09 37.39836 6.40024 33775 ft 442 kts 177°
2026-05-06 13:09 37.36806 6.40604 33265 ft 437 kts 177°
2026-05-06 13:09 37.33812 6.41177 32754 ft 433 kts 177°
2026-05-06 13:09 37.30860 6.41741 32292 ft 428 kts 177°
2026-05-06 13:10 37.27932 6.42298 31815 ft 424 kts 176°
2026-05-06 13:10 37.25029 6.42850 31356 ft 420 kts 176°
2026-05-06 13:10 37.22146 6.43397 30899 ft 416 kts 176°
2026-05-06 13:10 37.19335 6.43930 30451 ft 413 kts 176°
2026-05-06 13:11 37.16492 6.44468 30007 ft 410 kts 176°
2026-05-06 13:11 37.13685 6.44999 29489 ft 407 kts 176°
2026-05-06 13:11 37.10890 6.45528 29011 ft 403 kts 176°
2026-05-06 13:11 37.08160 6.46046 28546 ft 399 kts 176°
2026-05-06 13:12 37.05447 6.46559 28102 ft 395 kts 176°
2026-05-06 13:12 37.02705 6.47077 27618 ft 392 kts 176°
2026-05-06 13:12 37.00022 6.47583 27163 ft 389 kts 176°
2026-05-06 13:12 36.97369 6.48084 26721 ft 386 kts 176°
2026-05-06 13:13 36.94753 6.48576 26279 ft 383 kts 176°
2026-05-06 13:13 36.92120 6.49071 25837 ft 381 kts 176°
2026-05-06 13:13 36.89511 6.49562 25400 ft 378 kts 176°
2026-05-06 13:13 36.86916 6.50050 24967 ft 376 kts 176°
2026-05-06 13:14 36.84340 6.50534 24548 ft 374 kts 176°
2026-05-06 13:14 36.81773 6.51016 24104 ft 372 kts 176°
2026-05-06 13:14 36.79227 6.51493 23688 ft 369 kts 176°
2026-05-06 13:14 36.76721 6.51963 23207 ft 368 kts 176°
2026-05-06 13:15 36.74192 6.52437 22720 ft 365 kts 176°
2026-05-06 13:15 36.71687 6.52907 22274 ft 362 kts 176°
2026-05-06 13:15 36.69202 6.53373 21856 ft 359 kts 176°
2026-05-06 13:15 36.66772 6.53827 21418 ft 357 kts 176°
2026-05-06 13:16 36.65149 6.54131 21144 ft 355 kts 176°
2026-05-06 13:16 36.63227 6.54490 20804 ft 353 kts 176°
2026-05-06 13:16 36.60797 6.54943 20390 ft 351 kts 176°
2026-05-06 13:17 36.58387 6.55393 19981 ft 350 kts 176°
2026-05-06 13:17 36.55991 6.55839 19561 ft 349 kts 176°
2026-05-06 13:17 36.53593 6.56286 19167 ft 348 kts 176°
2026-05-06 13:17 36.51201 6.56731 18754 ft 348 kts 176°
2026-05-06 13:18 36.48831 6.57172 18336 ft 348 kts 176°
2026-05-06 13:18 36.46444 6.57617 17876 ft 347 kts 176°
2026-05-06 13:18 36.44054 6.58061 17428 ft 346 kts 176°
2026-05-06 13:18 36.41687 6.58502 17001 ft 344 kts 176°
2026-05-06 13:19 36.39321 6.58942 16600 ft 342 kts 176°
2026-05-06 13:19 36.36983 6.59376 16186 ft 340 kts 176°
2026-05-06 13:19 36.34647 6.59810 15780 ft 338 kts 176°
2026-05-06 13:19 36.32356 6.60234 15382 ft 336 kts 177°
2026-05-06 13:20 36.30022 6.60359 14972 ft 328 kts 188°
2026-05-06 13:20 36.27804 6.59938 14604 ft 321 kts 198°
2026-05-06 13:20 36.25735 6.59066 14236 ft 316 kts 205°
2026-05-06 13:20 36.23709 6.58039 13845 ft 314 kts 206°
2026-05-06 13:21 36.21701 6.56995 13397 ft 313 kts 206°
2026-05-06 13:21 36.19704 6.55956 12984 ft 311 kts 205°
2026-05-06 13:21 36.17708 6.54926 12567 ft 309 kts 205°
2026-05-06 13:21 36.15731 6.53910 12175 ft 307 kts 205°
2026-05-06 13:22 36.13766 6.52904 11771 ft 306 kts 205°
2026-05-06 13:22 36.11801 6.51902 11384 ft 305 kts 205°
2026-05-06 13:22 36.09836 6.50901 10991 ft 305 kts 205°
2026-05-06 13:22 36.07876 6.49905 10596 ft 304 kts 205°
2026-05-06 13:23 36.05931 6.48918 10391 ft 297 kts 205°
2026-05-06 13:23 36.04072 6.47978 10232 ft 286 kts 205°
2026-05-06 13:23 36.02287 6.47075 10085 ft 270 kts 205°
2026-05-06 13:23 36.00561 6.46201 9852 ft 270 kts 205°
2026-05-06 13:24 35.98793 6.45303 9655 ft 274 kts 204°
2026-05-06 13:24 35.97055 6.44423 9374 ft 269 kts 205°
2026-05-06 13:24 35.95336 6.43553 9108 ft 264 kts 204°
2026-05-06 13:24 35.93606 6.42678 8889 ft 277 kts 204°
2026-05-06 13:25 35.91787 6.41756 8649 ft 285 kts 204°
2026-05-06 13:25 35.89970 6.40839 8396 ft 284 kts 204°
2026-05-06 13:25 35.88154 6.39923 8140 ft 281 kts 204°
2026-05-06 13:25 35.86372 6.39025 8043 ft 273 kts 204°
2026-05-06 13:26 35.84641 6.38153 7909 ft 266 kts 204°
2026-05-06 13:26 35.82924 6.37309 7691 ft 264 kts 199°
2026-05-06 13:26 35.81181 6.37081 7690 ft 247 kts 174°
2026-05-06 13:26 35.79627 6.37783 7690 ft 234 kts 149°
2026-05-06 13:27 35.78638 6.39285 7649 ft 230 kts 111°
2026-05-06 13:27 35.78361 6.41250 7441 ft 237 kts 90°
2026-05-06 13:27 35.78578 6.43265 7239 ft 241 kts 79°
2026-05-06 13:27 35.78936 6.45246 7231 ft 234 kts 78°
2026-05-06 13:28 35.79285 6.47165 7212 ft 225 kts 79°
2026-05-06 13:28 35.79616 6.49055 7210 ft 229 kts 79°
2026-05-06 13:28 35.79951 6.51007 7033 ft 238 kts 79°
2026-05-06 13:28 35.80286 6.52987 6928 ft 232 kts 79°
2026-05-06 13:29 35.80785 6.54869 6578 ft 231 kts 58°
2026-05-06 13:29 35.81867 6.56233 6330 ft 225 kts 31°
2026-05-06 13:29 35.83353 6.56825 6039 ft 221 kts
2026-05-06 13:29 35.84843 6.56521 5780 ft 217 kts 336°
2026-05-06 13:30 35.86024 6.55482 5564 ft 211 kts 311°
2026-05-06 13:30 35.86722 6.53894 5158 ft 215 kts 281°
2026-05-06 13:30 35.86530 6.52123 4962 ft 207 kts 246°
2026-05-06 13:30 35.85970 6.50476 4948 ft 209 kts 243°
2026-05-06 13:31 35.85308 6.48889 4917 ft 208 kts 240°
2026-05-06 13:31 35.84581 6.47369 4917 ft 203 kts 235°
2026-05-06 13:31 35.83802 6.45959 4899 ft 201 kts 232°
2026-05-06 13:31 35.82992 6.44549 4901 ft 203 kts 232°
2026-05-06 13:32 35.82169 6.43118 4816 ft 209 kts 233°
2026-05-06 13:32 35.81318 6.41637 4574 ft 212 kts 233°
2026-05-06 13:32 35.80495 6.40197 4296 ft 199 kts 233°
2026-05-06 13:32 35.79723 6.38850 4032 ft 187 kts 233°
2026-05-06 13:33 35.79005 6.37598 3835 ft 173 kts 233°
2026-05-06 13:33 35.78338 6.36414 3527 ft 168 kts 234°
2026-05-06 13:33 35.77680 6.35262 3329 ft 163 kts 232°
2026-05-06 13:33 35.77010 6.34131 3148 ft 166 kts 233°
2026-05-06 13:34 35.76343 6.32930 2868 ft 170 kts 231°
2026-05-06 13:34 35.75667 6.31785 2701 ft 161 kts 234°
2026-05-06 13:34 35.75093 6.30776 2700 ft 126 kts 234°
2026-05-06 13:34 35.74663 6.30022 2698 ft 70 kts 235°
2026-05-06 13:35 35.74500 6.29737 2700 ft 31 kts 230°
2026-05-06 13:35 35.74400 6.29630 2699 ft 4 kts 259°
2026-05-06 13:35 35.74415 6.29605 2699 ft 4 kts 334°
2026-05-06 13:35 35.74438 6.29615 2699 ft 4 kts 49°
2026-05-06 13:36 35.74457 6.29648 2699 ft 8 kts 56°
2026-05-06 13:36 35.74505 6.29738 2700 ft 17 kts 58°
2026-05-06 13:36 35.74589 6.29893 2699 ft 26 kts 55°
2026-05-06 13:36 35.74704 6.30097 2698 ft 31 kts 55°
2026-05-06 13:37 35.74828 6.30311 2698 ft 31 kts 54°
2026-05-06 13:37 35.74952 6.30527 2699 ft 30 kts 54°
2026-05-06 13:37 35.75068 6.30730 2699 ft 28 kts 55°
2026-05-06 13:37 35.75175 6.30917 2700 ft 26 kts 54°
2026-05-06 13:38 35.75277 6.31095 2699 ft 24 kts 55°
2026-05-06 13:38 35.75373 6.31258 2698 ft 23 kts 54°
2026-05-06 13:38 35.75468 6.31422 2699 ft 25 kts 54°
2026-05-06 13:38 35.75565 6.31594 2700 ft 24 kts 54°
2026-05-06 13:39 35.75651 6.31740 2701 ft 17 kts 46°
2026-05-06 13:39 35.75714 6.31752 2700 ft 9 kts 346°
2026-05-06 13:39 35.75778 6.31706 2697 ft 12 kts 323°
2026-05-06 13:39 35.75799 6.31618 2697 ft 11 kts 251°
2026-05-06 13:40 35.75755 6.31539 2697 ft 11 kts 234°
2026-05-06 13:40 35.75711 6.31462 2697 ft 11 kts 234°
2026-05-06 13:40 35.75667 6.31388 2697 ft 11 kts 234°
2026-05-06 13:40 35.75625 6.31315 2697 ft 10 kts 234°
2026-05-06 13:41 35.75584 6.31244 2696 ft 10 kts 235°
2026-05-06 13:41 35.75540 6.31155 2696 ft 14 kts 252°
2026-05-06 13:41 35.75582 6.31075 2696 ft 5 kts 351°
2026-05-06 13:41 35.75615 6.31076 2696 ft 5 kts
2026-05-06 13:42 35.75646 6.31081 2696 ft 5 kts
2026-05-06 13:42 35.75677 6.31078 2696 ft 4 kts 336°
2026-05-06 13:42 35.75691 6.31044 2696 ft 5 kts 276°
2026-05-06 13:42 35.75694 6.31006 2696 ft 5 kts 278°
2026-05-06 13:43 35.75698 6.30973 2696 ft 1 kts 278°
2026-05-06 13:43 35.75699 6.30971 2696 ft 0 kts 278°